Mildenhall RAF, United Kingdom

5:56 PM BST on May 24, 2017 (GMT +0100)
Mildenhall Air Base

Weather History for EGUN - October, 2012

Change the Weather History Date:

Friday, October 5, 2012

  Actual Average Record
Temperature  
Mean Temperature 52 °F -  
Max Temperature 56 °F - - ()
Min Temperature 48 °F - - ()
Degree Days  
Heating Degree Days 14    
Growing Degree Days 2 (Base 50)    
Moisture  
Dew Point 50 °F    
Average Humidity 97    
Maximum Humidity 100    
Minimum Humidity 72    
Precipitation  
Precipitation 0.78 in - - ()
Sea Level Pressure  
Sea Level Pressure 29.63 in    
Wind  
Wind Speed 8 mph ()    
Max Wind Speed 17 mph    
Max Gust Speed 24 mph    
Visibility 5.6 miles    
Events Rain    
T = Trace of Precipitation, MM = Missing Value Source: Averaged Metar Reports

Daily Weather History Graph

Daily Weather History Graph

Search for Another Location

Airport or City:

Trip Planner

Search our weather history database for the weather conditions in past years. The results will help you decide how hot, cold, wet, or windy it might be!

Date:

Astronomy

Oct. 05, 2012 Rise Set
Actual Time 7:06 AM BST 6:25 PM BST
Civil Twilight 6:32 AM BST 6:59 PM BST
Nautical Twilight 5:53 AM BST 7:38 PM BST
Astronomical Twilight 5:12 AM BST 8:18 PM BST
Moon 8:59 PM BST (10/5) 12:38 PM BST (10/5)
Length of Visible Light 12h 26m
Length of Day
11h 18m
Waning Gibbous, 76% of the Moon is Illuminated
Oct 5
Waning Gibbous
Oct 8
Last Quarter
Oct 15
New
Oct 22
First Quarter
Oct 29
Full

Hourly Weather History & Observations

Time (BST) Temp. Dew Point Humidity Pressure Visibility Wind Dir Wind Speed Gust Speed Precip Events Conditions
12:45 AM 53.6 °F 46.4 °F 77% 29.74 in 6.2 mi SSW 8.1 mph - N/A Rain Light Rain
12:58 AM 52.9 °F 47.7 °F 82% 29.74 in 6.2 mi South 9.2 mph - 0.00 in Rain Light Rain
12:59 AM 51.8 °F 48.2 °F 88% 29.73 in 6.2 mi South 10.4 mph - N/A Rain Light Rain
1:29 AM 51.8 °F 50.0 °F 94% 29.72 in 6.2 mi South 9.2 mph - N/A Rain Light Rain
1:30 AM 51.8 °F 50.0 °F 94% 29.72 in 6.2 mi South 9.2 mph - N/A Rain Light Rain
1:58 AM 51.1 °F 49.6 °F 95% 29.71 in 6.2 mi South 5.8 mph - 0.02 in Rain Light Rain
2:32 AM 50.0 °F 50.0 °F 100% 29.67 in 6.2 mi SSE 8.1 mph - N/A Rain Light Rain
2:33 AM 50.0 °F 50.0 °F 100% 29.67 in 6.2 mi SSE 8.1 mph - N/A Rain Light Rain
2:38 AM 50.0 °F 50.0 °F 100% 29.66 in 6.2 mi SSE 8.1 mph - N/A Rain Light Rain
2:43 AM 50.0 °F 50.0 °F 100% 29.66 in 6.2 mi SSE 6.9 mph - N/A Rain Light Rain
2:54 AM 50.0 °F 50.0 °F 100% 29.64 in 6.2 mi SE 5.8 mph - N/A Rain Light Rain
2:57 AM 50.0 °F 50.0 °F 100% 29.64 in 6.2 mi SE 5.8 mph - N/A Rain Light Rain
2:58 AM 50.0 °F 50.0 °F 100% 29.65 in 6.2 mi ESE 5.8 mph - 0.02 in Rain Light Rain
3:08 AM 50.0 °F 50.0 °F 100% 29.63 in 6.2 mi SE 6.9 mph - N/A Rain Light Rain
3:36 AM 50.0 °F 50.0 °F 100% 29.60 in 6.2 mi ESE 8.1 mph - N/A Rain Light Rain
3:38 AM 50.0 °F 50.0 °F 100% 29.59 in 6.2 mi ESE 6.9 mph - N/A Rain Light Rain
3:39 AM 50.0 °F 50.0 °F 100% 29.59 in 6.2 mi ESE 6.9 mph - N/A Rain Light Rain
3:40 AM 50.0 °F 50.0 °F 100% 29.59 in 6.2 mi ESE 6.9 mph - N/A Rain Light Rain
3:42 AM 50.0 °F 50.0 °F 100% 29.59 in 6.2 mi ESE 6.9 mph - N/A Rain Light Rain
3:44 AM 50.0 °F 50.0 °F 100% 29.59 in 6.2 mi ESE 6.9 mph - N/A Rain Light Rain
3:45 AM 50.0 °F 50.0 °F 100% 29.58 in 6.2 mi ESE 6.9 mph - N/A Rain Light Rain
3:46 AM 50.0 °F 50.0 °F 100% 29.58 in 6.2 mi ESE 6.9 mph - N/A Rain Light Rain
3:48 AM 50.0 °F 50.0 °F 100% 29.58 in 6.2 mi ESE 6.9 mph - N/A Rain Light Rain
3:49 AM 50.0 °F 50.0 °F 100% 29.58 in 6.2 mi ESE 8.1 mph - N/A Rain Light Rain
3:58 AM 50.2 °F 50.2 °F 100% 29.57 in 5.0 mi ESE 6.9 mph - 0.11 in Rain Light Rain
3:59 AM 50.0 °F 50.0 °F 100% 29.56 in 5.0 mi ESE 8.1 mph - N/A Rain Light Rain
4:01 AM 50.0 °F 50.0 °F 100% 29.56 in 5.0 mi ESE 8.1 mph - N/A Rain Light Rain
4:02 AM 50.0 °F 50.0 °F 100% 29.56 in 5.0 mi ESE 6.9 mph - N/A Rain Light Rain
4:04 AM 50.0 °F 50.0 °F 100% 29.56 in 5.0 mi East 8.1 mph - N/A Rain Light Rain
4:06 AM 50.0 °F 50.0 °F 100% 29.55 in 5.0 mi ESE 8.1 mph - N/A Rain Light Rain
4:12 AM 50.0 °F 50.0 °F 100% 29.55 in 5.0 mi ESE 8.1 mph - N/A Rain Light Rain
4:15 AM 50.0 °F 50.0 °F 100% 29.54 in 5.0 mi ESE 8.1 mph - N/A Rain Light Rain
4:16 AM 50.0 °F 50.0 °F 100% 29.54 in 5.0 mi ESE 8.1 mph - N/A Rain Light Rain
4:17 AM 50.0 °F 50.0 °F 100% 29.54 in 5.0 mi ESE 8.1 mph - N/A Rain Light Rain
4:26 AM 50.0 °F 50.0 °F 100% 29.53 in 5.0 mi East 8.1 mph - N/A Rain Light Rain
4:40 AM 50.0 °F 50.0 °F 100% 29.52 in 3.1 mi East 8.1 mph - N/A Rain Rain
4:44 AM 50.0 °F 50.0 °F 100% 29.52 in 3.1 mi East 8.1 mph - N/A Rain Light Rain
4:47 AM 50.0 °F 50.0 °F 100% 29.51 in 3.1 mi East 8.1 mph - N/A Rain Light Rain
4:52 AM 50.0 °F 50.0 °F 100% 29.51 in 2.5 mi East 9.2 mph - N/A Rain Rain
4:55 AM 50.0 °F 50.0 °F 100% 29.51 in 2.5 mi East 8.1 mph - N/A Rain Rain
4:58 AM 50.7 °F 50.7 °F 100% 29.51 in 2.5 mi East 8.1 mph - 0.23 in Rain Rain
5:09 AM 50.0 °F 50.0 °F 100% 29.50 in - ENE 6.9 mph - N/A Rain Rain
5:20 AM 50.0 °F 50.0 °F 100% 29.50 in 1.7 mi NE 6.9 mph - N/A Rain Heavy Rain
5:29 AM 50.0 °F 50.0 °F 100% 29.49 in - NE 6.9 mph - N/A Rain Rain
5:32 AM 50.0 °F 50.0 °F 100% 29.49 in 2.5 mi NE 6.9 mph - N/A Rain Rain
5:35 AM 50.0 °F 50.0 °F 100% 29.49 in 3.1 mi NE 6.9 mph - N/A Rain Light Rain
5:40 AM 50.0 °F 50.0 °F 100% 29.48 in 5.0 mi NE 6.9 mph - N/A Rain Light Rain
5:47 AM 50.0 °F 50.0 °F 100% 29.49 in 6.2 mi NNE 6.9 mph - N/A Rain Light Rain
5:50 AM 50.0 °F 50.0 °F 100% 29.48 in 6.2 mi NNE 6.9 mph - N/A Rain Light Rain
5:53 AM 50.0 °F 50.0 °F 100% 29.48 in 6.2 mi NNE 8.1 mph - N/A Rain Light Rain
5:58 AM 50.7 °F 50.7 °F 100% 29.50 in 6.2 mi North 8.1 mph - 0.19 in Rain Light Rain
6:11 AM 50.0 °F 50.0 °F 100% 29.49 in 6.2 mi North 10.4 mph - N/A   Overcast
6:12 AM 50.0 °F 50.0 °F 100% 29.49 in 6.2 mi North 11.5 mph - N/A   Light Drizzle
6:32 AM 50.0 °F 50.0 °F 100% 29.52 in 3.7 mi NNW 15.0 mph - N/A Rain Light Rain
6:58 AM 50.2 °F 50.2 °F 100% 29.57 in 3.7 mi NNW 17.3 mph 21.9 mph 0.03 in Rain Rain
7:05 AM 50.0 °F 50.0 °F 100% 29.56 in 5.0 mi NNW 10.4 mph 21.9 mph N/A Rain Light Rain
7:11 AM 50.0 °F 50.0 °F 100% 29.56 in 6.2 mi NNW 6.9 mph - N/A Rain Light Rain
7:12 AM 50.0 °F 50.0 °F 100% 29.56 in 6.2 mi NNW 6.9 mph - N/A   Overcast
7:28 AM 50.0 °F 50.0 °F 100% 29.55 in 6.2 mi ESE 2.3 mph - N/A   Overcast
7:30 AM 50.0 °F 50.0 °F 100% 29.55 in 6.2 mi ESE 4.6 mph - N/A   Overcast
7:31 AM 50.0 °F 50.0 °F 100% 29.55 in 6.2 mi ESE 4.6 mph - N/A   Overcast
7:58 AM 49.5 °F 49.5 °F 100% 29.58 in 6.2 mi SSW 5.8 mph - 0.00 in   Overcast
8:58 AM 51.4 °F 51.4 °F 100% 29.63 in 6.2 mi West 13.8 mph - N/A   Mostly Cloudy
9:58 AM 52.9 °F 52.9 °F 100% 29.67 in 6.2 mi West 15.0 mph - 0.01 in   Mostly Cloudy
10:58 AM 53.2 °F 52.3 °F 97% 29.70 in 6.2 mi West 17.3 mph - N/A   Mostly Cloudy
11:58 AM 54.1 °F 50.4 °F 87% 29.72 in 6.2 mi West 15.0 mph - N/A   Mostly Cloudy
12:58 PM 55.0 °F 48.7 °F 79% 29.75 in 6.2 mi West 16.1 mph 24.2 mph N/A   Mostly Cloudy
1:58 PM 55.6 °F 47.5 °F 74% 29.76 in 6.2 mi West 17.3 mph 24.2 mph N/A   Partly Cloudy
2:58 PM 55.2 °F 46.4 °F 72% 29.78 in 6.2 mi West 13.8 mph 24.2 mph N/A   Scattered Clouds
3:58 PM 54.7 °F 46.9 °F 75% 29.79 in 6.2 mi West 10.4 mph - N/A   Partly Cloudy
4:58 PM 54.3 °F 46.4 °F 75% 29.80 in 6.2 mi WSW 10.4 mph - N/A   Scattered Clouds
5:58 PM 53.4 °F 47.5 °F 80% 29.80 in 6.2 mi SW 8.1 mph - N/A   Partly Cloudy
6:58 PM 53.1 °F 47.7 °F 82% 29.81 in 6.2 mi SSW 10.4 mph - N/A   Clear
7:37 PM 51.8 °F 46.4 °F 82% 29.82 in 6.2 mi SW 11.5 mph - N/A Rain Light Rain
7:50 PM 51.8 °F 48.2 °F 88% 29.81 in 6.2 mi SW 12.7 mph - N/A Rain Light Rain
7:58 PM 51.1 °F 48.0 °F 89% 29.83 in 6.2 mi SW 11.5 mph - 0.00 in Rain Light Rain
8:32 PM 50.0 °F 48.2 °F 94% 29.81 in 6.2 mi SSW 8.1 mph - N/A Rain Light Rain
8:58 PM 49.5 °F 49.3 °F 99% 29.82 in 6.2 mi SSW 10.4 mph - 0.02 in Rain Light Rain
9:33 PM 50.0 °F 50.0 °F 100% 29.82 in 6.2 mi SW 8.1 mph - N/A Rain Light Rain
9:44 PM 50.0 °F 50.0 °F 100% 29.82 in 6.2 mi WSW 5.8 mph - N/A Rain Light Rain
9:58 PM 49.5 °F 49.5 °F 100% 29.84 in 6.2 mi WSW 8.1 mph - 0.04 in Rain Rain
10:10 PM 50.0 °F 50.0 °F 100% 29.82 in 6.2 mi West 6.9 mph - N/A Rain Light Rain
10:19 PM 50.0 °F 50.0 °F 100% 29.82 in 6.2 mi West 5.8 mph - N/A Rain Light Rain
10:58 PM 48.9 °F 48.9 °F 100% 29.83 in 6.2 mi West 6.9 mph - 0.06 in Rain Light Rain
11:58 PM 48.6 °F 48.6 °F 100% 29.82 in 6.2 mi West 5.8 mph - 0.05 in Rain Light Rain